This demonstration page uses our WeatherBlox Daily Observations layout. Learn more.

Left ArrowRight Arrow

47.50024, -111.30081

Hourly Observations for October 15, 2019

Temp ( °F °C ) Dew Point ( °F °C ) Humidity (%) Winds ( mph kmh ) Pressure ( in mb ) Visibility ( mi km ) Precip ( " mm )
12:53 am 00:53 Cloudy 37 2.8 31 -0.6 79 79 SW 3 6 30.31 1026 10 16 0.00 0.00
1:09 am 01:09 Cloudy 37 2.8 31 -0.6 79 79 WSW 3 6 30.30 1026 10 16 0.00 0.00
1:49 am 01:49 Cloudy 37 3 30 -1 75 75 W 3 6 30.30 1026 10 16 0.00 0.00
1:53 am 01:53 Cloudy 37 2.8 31 -0.6 79 79 Calm 30.28 1025 10 16 0.00 0.00
2:53 am 02:53 Mostly Cloudy 34 1.1 29 -1.7 82 82 SSE 3 6 30.29 1026 10 16 0.00 0.00
3:53 am 03:53 Mostly Clear 32 0 28 -2.2 85 85 Calm 30.31 1026 10 16 0.00 0.00
4:53 am 04:53 Clear 30 -1.1 26 -3.3 85 85 Calm 30.31 1027 10 16 0.00 0.00
5:53 am 05:53 Clear 32 0 27 -2.8 82 82 ESE 3 6 30.31 1026 10 16 0.00 0.00
6:53 am 06:53 Clear 30 -1.1 26 -3.3 85 85 ESE 3 6 30.33 1027 10 16 0.00 0.00
7:53 am 07:53 Sunny 29 -1.7 26 -3.3 89 89 E 5 7 30.32 1027 10 16 0.00 0.00
8:53 am 08:53 Sunny 33 0.6 29 -1.7 85 85 SSE 6 9 30.29 1026 9 14 0.00 0.00
9:53 am 09:53 Sunny 39 3.9 30 -1.1 70 70 SSE 10 17 30.26 1025 10 16 0.00 0.00
10:53 am 10:53 Sunny 44 6.7 31 -0.6 60 60 S 7 11 30.23 1024 10 16 0.00 0.00
11:53 am 11:53 Sunny 47 8.3 32 0 56 56 VRB 6 9 30.19 1022 10 16 0.00 0.00
12:53 pm 12:53 Sunny 52 11.1 30 -1.1 43 43 VRB 5 7 30.15 1021 10 16 0.00 0.00
1:53 pm 13:53 Sunny 55 12.8 29 -1.7 37 37 SSW 5 7 30.12 1020 10 16 0.00 0.00
2:53 pm 14:53 Sunny 57 13.9 27 -2.8 32 32 S 8 13 30.09 1019 10 16 0.00 0.00
3:53 pm 15:53 Sunny 58 14.4 24 -4.4 27 27 SSW 10 17 30.07 1018 10 16 0.00 0.00
4:53 pm 16:53 Sunny 58 14.4 26 -3.3 29 29 SSW 9 15 30.06 1018 10 16 0.00 0.00
5:53 pm 17:53 Sunny 55 12.8 26 -3.3 33 33 SSW 10 17 30.04 1017 10 16 0.00 0.00
6:53 pm 18:53 Clear 52 11.1 26 -3.3 37 37 SW 10 17 30.05 1018 10 16 0.00 0.00
7:53 pm 19:53 Clear 52 11.1 28 -2.2 40 40 SSW 14 22 30.04 1017 10 16 0.00 0.00
8:53 pm 20:53 Clear 51 10.6 29 -1.7 43 43 SSW 15 24 30.04 1017 10 16 0.00 0.00
9:53 pm 21:53 Clear 52 11.1 28 -2.2 40 40 SSW 14 22 30.00 1016 10 16 0.00 0.00
10:53 pm 22:53 Clear 50 10 30 -1.1 46 46 SSW 12 19 29.99 1016 10 16 0.00 0.00
11:53 pm 23:53 Clear 51 10.6 29 -1.7 43 43 SSW 13 20 29.96 1015 10 16 0.00 0.00

Powered by AerisWeather